Tracking 19638 objects as of 20-May-2019
HD Live streaming from Space Station
objects crossing your sky now

SHENZHOU-11 MODULE

Track SHENZHOU-11 MODULE now!
10-day predictions
SHENZHOU-11 MODULE is classified as:


NORAD ID: 41868
Int'l Code: 2016-061G
Perigee: 334.9 km
Apogee: 342.6 km
Inclination: 42.8 °
Period: 91.2 minutes
Semi major axis: 6709 km
RCS: Unknown
Launch date: October 16, 2016
Source: People's Republic of China (PRC)
Launch site: Jiuquan Satellite Launch Center, China (JSC)
aabbcc
Your satellite tracking list
Your tracking list is empty




NASA's NSSDC Master Catalog

Two Line Element Set (TLE):
1 41868U 16061G   19136.79068081 +.00021273 +00000-0 +11532-3 0  9990
2 41868 042.7938 080.1599 0005686 194.4126 252.8437 15.79585624142905
Source of the keplerian elements: AFSPC